Retour au catalogue

SL-6 DEB

ActifHEO
NORAD 13910·DEBRIS·🇷🇺 Russia

Lancé Sep 11, 1981 depuis Plesetsk Cosmodrome

Loading…

Prochains Passages (prochaines 24 heures)

TLE

FraisSource: Space-Track

Époque: Sep 5, 2026, 15:51 UTC

1 13910U 81088K   26248.66051676 -.00000010  00000-0  11050-2 0  9999
2 13910  63.2336  13.7988 4596973 313.8421  16.2949  5.43020724 71994

Suivez SL-6 DEB en temps réel avec AllMySat

Download on the App Store